Skip Page Navigation
NASA JPL Caltech
NASA Logo - Jet Propulsion Laboratory + View the NASA Portal
+ Center for Near-Earth Object Studies
JPL Home Earth Solar System Stars & Galaxies Technology
JPL Solar System Dynamics
BODIES ORBITS EPHEMERIDES TOOLS PHYSICAL DATA DISCOVERY FAQ SITE MAP
JPL Small-Body Database Browser
Search: [ help ]  
16758 (1996 TR1)
Classification: Main-belt Asteroid          SPK-ID: 2016758
Ephemeris | Orbit Diagram | Orbital Elements | Mission Design | Physical Parameters | Discovery Circumstances | Close-Approach Data ]

[ show orbit diagram ]
Orbital Elements at Epoch 2459200.5 (2020-Dec-17.0) TDB
Reference: JPL 36 (heliocentric ecliptic J2000)
 Element Value Uncertainty (1-sigma)   Units 
e .05230687071900383 1.8771e-08  
a 2.747167578877435 9.4686e-09 au
q 2.603471839485654 5.1852e-08 au
i 5.084332758936818 7.8364e-07 deg
node 164.3054127237868 8.7296e-06 deg
peri 303.2374198269803 1.9261e-05 deg
M 22.99106217309236 1.5228e-05 deg
tp 2459094.285773516713
(2020-Sep-01.78577352)
7.0396e-05 TDB
period 1663.129839156986
4.55
8.5984e-06
2.354e-08
d
yr
n .2164593476252451 1.1191e-09 deg/d
Q 2.890863318269215 9.9638e-09 au
  Orbit Determination Parameters
   # obs. used (total)      2360  
   data-arc span      24836 days (68.00 yr)  
   first obs. used      1953-03-16  
   last obs. used      2021-03-15  
   planetary ephem.      DE441  
   SB-pert. ephem.      SB441-N16  
   condition code      0  
   norm. resid. RMS      .45432  
   source      ORB  
   producer      Otto Matic  
   solution date      2021-Apr-13 01:41:06  

Additional Information
 Earth MOID = 1.62423 au 
 Jupiter MOID = 2.16179 au 
 T_jup = 3.340 
[ show covariance matrix ]

Ephemeris | Orbit Diagram | Orbital Elements | Mission Design | Physical Parameters | Discovery Circumstances | Close-Approach Data ]

Physical Parameter Table
Parameter Symbol Value Units Sigma Reference Notes
absolute magnitude H 13.63   n/a E2021B10  
diameter diameter 7.196 km 0.983 urn:nasa:pds:neowise_diameters_albedos::2.0[mainbelt] (http://adsabs.harvard.edu/abs/2012ApJ...759L...8M)  
geometric albedo albedo 0.136   0.035 urn:nasa:pds:neowise_diameters_albedos::2.0[mainbelt] (http://adsabs.harvard.edu/abs/2012ApJ...759L...8M)  

16758 (1996 TR1)          Discovered 1996-Oct-03 by Beijing Schmidt CCD Asteroid Program at Xinglong
Reference: 20000913/Numbers.arcLast Updated: 2004-04-19

[ show close-approach data ]
Alternate Designations
 1996 TR1 = 1953 FS 
Ephemeris | Orbit Diagram | Orbital Elements | Mission Design | Physical Parameters | Discovery Circumstances | Close-Approach Data ]
ABOUT SSD CREDITS/AWARDS PRIVACY/COPYRIGHT GLOSSARY LINKS
FirstGov 2021-Apr-15 06:14 UT
(server date/time)  
NASA Home Page
Site Manager:   Ryan S. Park
Webmaster  Alan B. Chamberlin